• In Deutschland
  • Länderverzeichnis
  • Für 7 Tage
  • Wassertemperatur
  • Satellitenkarten
  • Wetterkarte
  • Widgets
  • user-avatar
    Anmelden

    Stündliche Wetter Mayrhofen

    Heute, 17 August, Donnerstag

    Zeit Temperatur Niederschläge Wind Luftdruck Luftfeuchtigkeit
    00:00 +10°C° 0 mm 1 m/S 622 mmHg 91%
    01:00 +10°C° 0 mm 1 m/S 622 mmHg 90%
    02:00 +10°C° 0 mm 1 m/S 621 mmHg 90%
    03:00 +9°C° 0 mm 1 m/S 621 mmHg 90%
    04:00 +9°C° 0 mm 1 m/S 621 mmHg 90%
    05:00 +10°C° 0 mm 1 m/S 622 mmHg 87%
    06:00 +12°C° 0 mm 1 m/S 622 mmHg 84%
    07:00 +14°C° 0 mm 1 m/S 623 mmHg 79%
    08:00 +15°C° 0 mm 0 m/S 624 mmHg 70%
    09:00 +17°C° 0 mm 0 m/S 624 mmHg 60%
    10:00 +19°C° 0 mm 0 m/S 625 mmHg 51%
    11:00 +20°C° 0,1 mm 0 m/S 625 mmHg 49%
    12:00 +22°C° 0,1 mm 1 m/S 625 mmHg 47%
    13:00 +23°C° 0,1 mm 1 m/S 625 mmHg 45%
    14:00 +22°C° 0,2 mm 1 m/S 625 mmHg 49%
    15:00 +22°C° 0,2 mm 1 m/S 625 mmHg 54%
    16:00 +21°C° 0,2 mm 1 m/S 624 mmHg 59%
    17:00 +19°C° 0,4 mm 1 m/S 624 mmHg 67%
    18:00 +18°C° 0,4 mm 1 m/S 623 mmHg 76%
    19:00 +14°C° 0,4 mm 0 m/S 623 mmHg 84%
    20:00 +14°C° 0,1 mm 1 m/S 622 mmHg 86%
    21:00 +13°C° 0,1 mm 1 m/S 622 mmHg 89%
    22:00 +11°C° 0,1 mm 1 m/S 622 mmHg 91%
    23:00 +11°C° 0 mm 1 m/S 622 mmHg 91%

    Morgen, 18 August, Freitag

    Zeit Temperatur Niederschläge Wind Luftdruck Luftfeuchtigkeit
    00:00 +11°C° 0 mm 1 m/S 622 mmHg 91%
    01:00 +11°C° 0 mm 1 m/S 622 mmHg 91%
    02:00 +11°C° 0 mm 1 m/S 622 mmHg 91%
    03:00 +11°C° 0 mm 1 m/S 621 mmHg 91%
    04:00 +11°C° 0 mm 1 m/S 621 mmHg 91%
    05:00 +12°C° 0 mm 2 m/S 621 mmHg 89%
    06:00 +13°C° 0 mm 2 m/S 622 mmHg 87%
    07:00 +14°C° 0 mm 2 m/S 622 mmHg 85%
    08:00 +16°C° 0 mm 2 m/S 623 mmHg 75%
    09:00 +19°C° 0 mm 2 m/S 624 mmHg 66%
    10:00 +21°C° 0 mm 2 m/S 624 mmHg 56%
    11:00 +23°C° 0 mm 2 m/S 624 mmHg 53%
    12:00 +24°C° 0 mm 2 m/S 624 mmHg 50%
    13:00 +24°C° 0 mm 2 m/S 624 mmHg 48%
    14:00 +23°C° 0,6 mm 2 m/S 623 mmHg 53%
    15:00 +21°C° 0,6 mm 2 m/S 623 mmHg 59%
    16:00 +20°C° 0,6 mm 2 m/S 622 mmHg 64%
    17:00 +19°C° 1 mm 2 m/S 621 mmHg 72%
    18:00 +17°C° 1 mm 2 m/S 621 mmHg 79%
    19:00 +16°C° 1 mm 1 m/S 620 mmHg 86%
    20:00 +15°C° 1,2 mm 2 m/S 620 mmHg 89%
    21:00 +14°C° 1,2 mm 2 m/S 620 mmHg 92%
    22:00 +13°C° 1,2 mm 2 m/S 620 mmHg 96%
    23:00 +13°C° 1,8 mm 1 m/S 620 mmHg 96%

    übermorgen, 19 August, Samstag

    Zeit Temperatur Niederschläge Wind Luftdruck Luftfeuchtigkeit
    00:00 +12°C° 1,8 mm 1 m/S 620 mmHg 97%
    01:00 +12°C° 1,8 mm 1 m/S 620 mmHg 97%
    02:00 +11°C° 4,6 mm 1 m/S 620 mmHg 97%
    03:00 +10°C° 4,6 mm 2 m/S 619 mmHg 97%
    04:00 +9°C° 4,6 mm 2 m/S 619 mmHg 97%
    05:00 +9°C° 2,8 mm 2 m/S 619 mmHg 97%
    06:00 +8°C° 2,8 mm 2 m/S 619 mmHg 96%
    07:00 +8°C° 2,8 mm 2 m/S 619 mmHg 96%
    08:00 +8°C° 1,3 mm 2 m/S 620 mmHg 94%
    09:00 +8°C° 1,3 mm 2 m/S 620 mmHg 93%
    10:00 +9°C° 1,3 mm 2 m/S 620 mmHg 92%
    11:00 +10°C° 0,4 mm 2 m/S 620 mmHg 87%
    12:00 +12°C° 0,4 mm 2 m/S 621 mmHg 83%
    13:00 +12°C° 0,4 mm 2 m/S 621 mmHg 79%
    14:00 +13°C° 0,2 mm 2 m/S 621 mmHg 74%
    15:00 +14°C° 0,2 mm 2 m/S 621 mmHg 70%
    16:00 +14°C° 0,2 mm 2 m/S 622 mmHg 66%
    17:00 +13°C° 0,2 mm 2 m/S 621 mmHg 73%
    18:00 +12°C° 0,2 mm 2 m/S 621 mmHg 80%
    19:00 +9°C° 0,2 mm 2 m/S 621 mmHg 87%
    20:00 +9°C° 0,1 mm 2 m/S 621 mmHg 89%
    21:00 +8°C° 0,1 mm 2 m/S 621 mmHg 91%
    22:00 +7°C° 0,1 mm 2 m/S 621 mmHg 94%
    23:00 +7°C° 0 mm 2 m/S 621 mmHg 94%

    20 August, Sonntag

    Zeit Temperatur Niederschläge Wind Luftdruck Luftfeuchtigkeit
    00:00 +6°C° 0 mm 2 m/S 621 mmHg 95%
    01:00 +6°C° 0 mm 2 m/S 620 mmHg 95%
    02:00 +6°C° 0 mm 2 m/S 620 mmHg 95%
    03:00 +5°C° 0 mm 2 m/S 620 mmHg 95%
    04:00 +5°C° 0 mm 2 m/S 620 mmHg 96%
    05:00 +5°C° 0,1 mm 2 m/S 620 mmHg 93%
    06:00 +6°C° 0,1 mm 2 m/S 621 mmHg 91%
    07:00 +7°C° 0,1 mm 2 m/S 621 mmHg 89%
    08:00 +8°C° 0,1 mm 2 m/S 622 mmHg 80%
    09:00 +10°C° 0,1 mm 2 m/S 622 mmHg 72%
    10:00 +12°C° 0,1 mm 2 m/S 623 mmHg 63%
    11:00 +13°C° 0 mm 2 m/S 623 mmHg 57%
    12:00 +14°C° 0 mm 2 m/S 624 mmHg 51%
    13:00 +15°C° 0 mm 2 m/S 624 mmHg 45%
    14:00 +15°C° 0 mm 2 m/S 624 mmHg 46%
    15:00 +15°C° 0 mm 2 m/S 623 mmHg 47%
    16:00 +14°C° 0 mm 3 m/S 623 mmHg 49%
    17:00 +13°C° 0 mm 2 m/S 623 mmHg 59%
    18:00 +10°C° 0 mm 2 m/S 622 mmHg 70%
    19:00 +8°C° 0 mm 2 m/S 622 mmHg 81%
    20:00 +7°C° 0 mm 2 m/S 622 mmHg 85%
    21:00 +7°C° 0 mm 1 m/S 622 mmHg 88%
    22:00 +6°C° 0 mm 1 m/S 622 mmHg 92%
    23:00 +5°C° 0 mm 1 m/S 622 mmHg 92%

    21 August, Montag

    Zeit Temperatur Niederschläge Wind Luftdruck Luftfeuchtigkeit
    00:00 +5°C° 0 mm 1 m/S 622 mmHg 93%
    01:00 +4°C° 0 mm 1 m/S 622 mmHg 93%
    02:00 +4°C° 0 mm 1 m/S 621 mmHg 91%
    03:00 +4°C° 0 mm 1 m/S 621 mmHg 90%
    04:00 +3°C° 0 mm 1 m/S 621 mmHg 88%
    05:00 +5°C° 0 mm 1 m/S 621 mmHg 82%
    06:00 +6°C° 0 mm 1 m/S 622 mmHg 75%
    07:00 +8°C° 0 mm 1 m/S 623 mmHg 68%
    08:00 +10°C° 0 mm 1 m/S 623 mmHg 57%
    09:00 +13°C° 0 mm 1 m/S 624 mmHg 46%
    10:00 +15°C° 0 mm 1 m/S 625 mmHg 35%
    11:00 +16°C° 0 mm 2 m/S 625 mmHg 33%
    12:00 +17°C° 0 mm 2 m/S 625 mmHg 32%
    13:00 +18°C° 0 mm 2 m/S 625 mmHg 30%
    14:00 +18°C° 0 mm 2 m/S 625 mmHg 33%
    15:00 +18°C° 0 mm 2 m/S 624 mmHg 36%
    16:00 +18°C° 0 mm 2 m/S 624 mmHg 39%
    17:00 +16°C° 0 mm 2 m/S 623 mmHg 50%
    18:00 +13°C° 0 mm 2 m/S 623 mmHg 61%
    19:00 +11°C° 0 mm 1 m/S 622 mmHg 72%
    20:00 +10°C° 0 mm 1 m/S 622 mmHg 76%
    21:00 +9°C° 0 mm 1 m/S 621 mmHg 80%
    22:00 +8°C° 0 mm 1 m/S 621 mmHg 83%
    23:00 +8°C° 0 mm 1 m/S 621 mmHg 82%

    22 August, Dienstag

    Zeit Temperatur Niederschläge Wind Luftdruck Luftfeuchtigkeit
    00:00 +7°C° 0 mm 1 m/S 621 mmHg 81%
    01:00 +7°C° 0 mm 1 m/S 620 mmHg 80%
    02:00 +7°C° 0 mm 1 m/S 620 mmHg 79%
    03:00 +7°C° 0 mm 1 m/S 620 mmHg 78%
    04:00 +7°C° 0 mm 1 m/S 620 mmHg 77%
    05:00 +9°C° 0 mm 1 m/S 620 mmHg 73%
    06:00 +10°C° 0 mm 1 m/S 621 mmHg 69%
    07:00 +12°C° 0 mm 1 m/S 621 mmHg 66%
    08:00 +15°C° 0 mm 1 m/S 622 mmHg 57%
    09:00 +18°C° 0 mm 1 m/S 623 mmHg 49%
    10:00 +21°C° 0 mm 1 m/S 623 mmHg 41%
    11:00 +22°C° 0 mm 1 m/S 623 mmHg 40%
    12:00 +22°C° 0 mm 1 m/S 623 mmHg 38%
    13:00 +23°C° 0 mm 1 m/S 623 mmHg 37%
    14:00 +23°C° 0 mm 1 m/S 623 mmHg 40%
    15:00 +22°C° 0 mm 1 m/S 622 mmHg 43%
    16:00 +22°C° 0 mm 1 m/S 622 mmHg 46%
    17:00 +19°C° 0,1 mm 1 m/S 621 mmHg 57%
    18:00 +16°C° 0,1 mm 1 m/S 620 mmHg 69%
    19:00 +12°C° 0,1 mm 0 m/S 619 mmHg 80%
    20:00 +12°C° 0 mm 1 m/S 619 mmHg 82%
    21:00 +11°C° 0 mm 1 m/S 619 mmHg 84%
    22:00 +10°C° 0 mm 1 m/S 618 mmHg 86%
    23:00 +10°C° 0 mm 1 m/S 618 mmHg 86%
    Mehr zeigen